Regional Weather Roundup
Issued by NWS Raleigh/Durham, NC

Home | Current Version | Previous Version | Text Only | Print | Product List | Glossary On
Versions: 1 2 3 4 5 6 7 8 9 10 11 12 13 14 15 16 17 18 19 20 21 22 23 24 25 26 27 28
000
ASUS42 KRAH 200810
RWRRAH
NORTH CAROLINA WEATHER ROUNDUP
NATIONAL WEATHER SERVICE RALEIGH NC
400 AM EDT WED SEP 20 2017

NOTE: "FAIR" INDICATES FEW OR NO CLOUDS BELOW 12,000 FEET WITH NO
SIGNIFICANT WEATHER AND/OR OBSTRUCTIONS TO VISIBILITY.

NCZ001-053-055-056-065-067-200900-
WESTERN NORTH CAROLINA

CITY           SKY/WX    TMP DP  RH WIND       PRES   REMARKS
ASHEVILLE      CLEAR     64  62  93 CALM      30.07S
JEFFERSON      CLEAR     61  57  88 W3        30.09S
MORGANTON      CLEAR     62  62 100 CALM      30.04S FOG
HICKORY        CLEAR     67  67 100 NW5       29.99F
RUTHERFORDTON  CLEAR     65  65 100 SW7       30.01S FOG
MOUNT AIRY     CLEAR     66  63  88 CALM      30.02S FOG
BOONE          CLEAR     55  55 100 CALM      30.10F FOG
$$

NCZ021-022-025-041-071-084-088-200900-
CENTRAL NORTH CAROLINA

CITY           SKY/WX    TMP DP  RH WIND       PRES   REMARKS
CHARLOTTE      PTCLDY    69  69 100 CALM      29.99S
GREENSBORO     CLEAR     67  66  97 SW5       29.97S
WINSTON-SALEM  CLEAR     67  65  93 CALM      29.99S
RALEIGH-DURHAM PTCLDY    64  63  96 CALM      29.96S
FORT BRAGG     CLEAR     66  64  91 CALM      29.95S
FAYETTEVILLE   CLEAR     67  66  97 SW5       29.96R
BURLINGTON     CLEAR     63  63 100 CALM      29.97S
LAURINBURG     PTCLDY    64  63  96 CALM      29.97S
$$

NCZ011-015-027-028-043-044-047-080-103-200900-
NORTHEASTERN NORTH CAROLINA

CITY           SKY/WX    TMP DP  RH WIND       PRES   REMARKS
ROCKY MT-WILSO FOG       62  62 100 CALM      29.95S VSB 1
GREENVILLE     CLEAR     64  64 100 CALM      29.95S
WASHINGTON     CLEAR     67  65  94 W3        29.93S
ELIZABETH CITY CLOUDY    70  68  93 W8        29.89S
MANTEO         CLOUDY    73  68  86 NW5       29.88S
CAPE HATTERAS  CLEAR     75  70  84 NW8       29.90R
$$

NCZ078-087-090-091-093-098-101-200900-
SOUTHEASTERN NORTH CAROLINA

CITY           SKY/WX    TMP DP  RH WIND       PRES   REMARKS
LUMBERTON      CLEAR     62  62 100 CALM      29.96S
GOLDSBORO      CLEAR     66  66 100 CALM      29.93S
KINSTON        CLEAR     64  63  95 CALM      29.95S
KENANSVILLE    CLEAR     64  63  94 CALM      29.95S
NEW BERN       CLEAR     68  66  93 W3        29.95R
CHERRY POINT   CLEAR     69  67  93 W3        29.95R
BEAUFORT       CLEAR     71  68  90 W5        29.94R
JACKSONVILLE   CLEAR     68  67  96 W6        29.94S
WILMINGTON     CLEAR     69  67  93 CALM      29.96R
$$





USA.gov is the U.S. government's official web portal to all federal, state and local government web resources and services.